Location: Arroyo Grande
(40.2671°N, 4.2512°W)
Time: 06:37:48
(UTC+00:00)

Cosmos 1869 - Pass Details

Date: 03 February 2023
Orbit: 510 x 550 km, 82.5° (Epoch: 25 March)

Event Time Altitude Azimuth Distance (km) Brightness Sun altitude
Rises 19:01:50 0° 355° (N) 2,663 6.8 -16.3°
Reaches altitude 10° 19:03:59 10° 358° (N) 1,777 5.9 -16.8°
Maximum altitude 19:07:52 66° 81° (E) 583 3.1 -17.5°
Drops below altitude 10° 19:11:47 10° 165° (SSE) 1,790 5.8 -18.2°
Sets 19:13:57 0° 168° (SSE) 2,684 6.8 -18.6°
